Date String (YYYY-MM-DD hh:mm:ss) UTC,Instrument flags,absolute air pressure of the measurement (hPa),sample flow rate (lpm),inlet stack bypass flow (lpm),air temperature of the measurement (°C),ambient temperature measured by the external sensor (°C),aerosol sample conditioner tube jacket temperature (°C),OPC LED temperature (°C),internal box temperature (°C),relative humidity of the measurement (%),span deviation,mass concentration of particles derived from Lorenz-Mie calculation of OPC scattering (μg/m³),mass concentration of particles derived from Lorenz-Mie calculation of OPC scattering (μg/m³),mass concentration of particles derived from Lorenz-Mie calculation of OPC scattering (μg/m³)
DateTimeUTC,F1_M11,P_M11,Q1_M11,Q2_M11,T1_M11,T2_M11,T3_M11,T4_M11,T5_M11,U1_M11,ZSPAN_M11,X2_M11,X0_M11,X1_M11
2023-07-08 13:00:00,SystemResetWarning,0832.3,4.99,000.00,029.9,028.3,000.0,038.5,031.3,33.4,-000.4,0007.69,0013.30,0006.97
2023-07-08 13:01:00,SystemResetWarning,0832.3,4.99,000.00,029.9,028.3,000.0,038.5,031.3,33.5,-000.9,0007.68,0013.60,0006.95
2023-07-08 13:02:00,SystemResetWarning,0832.3,5.00,000.00,029.9,028.3,000.0,038.5,031.3,33.5,-001.1,0007.68,0013.72,0006.95
2023-07-08 13:03:00,SystemResetWarning,0832.2,5.00,000.00,029.9,028.3,000.0,038.5,031.4,33.0,-001.3,0007.67,0013.76,0006.94
2023-07-08 13:04:00,SystemResetWarning,0832.2,5.01,000.00,029.9,028.3,000.0,038.5,031.3,32.8,-001.4,0007.65,0013.61,0006.92
2023-07-08 13:05:00,SystemResetWarning,0832.2,4.99,000.00,029.9,028.3,000.0,038.5,031.3,32.7,-001.4,0007.63,0013.45,0006.91
2023-07-08 13:06:00,SystemResetWarning,0832.1,5.00,000.00,029.9,028.3,000.0,038.5,031.3,33.0,-001.5,0007.59,0013.24,0006.90
2023-07-08 13:07:00,SystemResetWarning,0832.0,5.00,000.00,029.9,028.3,000.0,038.5,031.4,33.1,-001.5,0007.57,0013.36,0006.90
2023-07-08 13:08:00,SystemResetWarning,0832.1,4.99,000.00,029.9,028.3,000.0,038.5,031.4,33.0,-001.6,0007.53,0013.86,0006.89
2023-07-08 13:09:00,SystemResetWarning,0832.1,5.00,000.00,029.9,028.3,000.0,038.5,031.4,33.1,-001.7,0007.54,0013.29,0006.90
2023-07-08 13:10:00,SystemResetWarning,0832.2,4.99,000.00,029.9,028.3,000.0,038.5,031.4,33.2,-001.9,0007.53,0013.12,0006.91
2023-07-08 13:11:00,SystemResetWarning,0832.2,5.01,000.00,029.9,028.3,000.0,038.5,031.4,33.2,-002.0,0007.52,0013.03,0006.92
2023-07-08 13:12:00,SystemResetWarning,0832.2,4.99,000.00,029.9,028.3,000.0,038.5,031.4,32.9,-002.1,0007.50,0012.61,0006.93
2023-07-08 13:13:00,SystemResetWarning,0832.1,4.99,000.00,029.9,028.3,000.0,038.5,031.4,33.1,-002.1,0007.48,0012.41,0006.93
2023-07-08 13:14:00,SystemResetWarning,0832.1,5.02,000.00,029.9,028.4,000.0,038.5,031.4,33.1,-002.1,0007.48,0012.43,0006.92
2023-07-08 13:15:00,SystemResetWarning,0832.1,5.00,000.00,029.9,028.4,000.0,038.5,031.4,33.0,-002.3,0007.51,0012.46,0006.94
2023-07-08 13:16:00,SystemResetWarning,0832.0,4.99,000.00,029.9,028.4,000.0,038.5,031.4,33.1,-002.2,0007.53,0012.49,0006.95
2023-07-08 13:17:00,SystemResetWarning,0832.2,5.00,000.00,029.9,028.4,000.0,038.5,031.4,33.7,-002.2,0007.54,0012.50,0006.95
2023-07-08 13:18:00,SystemResetWarning,0832.3,5.01,000.00,029.9,028.4,000.0,038.5,031.4,33.5,-002.2,0007.53,0012.43,0006.96
2023-07-08 13:19:00,SystemResetWarning,0832.3,5.00,000.00,029.9,028.4,000.0,038.5,031.4,33.3,-001.9,0007.53,0011.55,0006.96
2023-07-08 13:20:00,SystemResetWarning,0832.3,5.01,000.00,029.9,028.4,000.0,038.5,031.4,33.4,-001.9,0007.55,0011.54,0006.96
2023-07-08 13:21:00,SystemResetWarning,0832.2,5.01,000.00,029.9,028.4,000.0,038.5,031.4,33.2,-001.5,0007.56,0011.67,0006.96
2023-07-08 13:22:00,SystemResetWarning,0832.1,5.00,000.00,029.9,028.4,000.0,038.5,031.4,33.1,-001.5,0007.55,0011.99,0006.94
2023-07-08 13:23:00,SystemResetWarning,0832.0,4.99,000.00,029.9,028.5,000.0,038.5,031.4,33.2,-000.9,0007.57,0011.99,0006.95
2023-07-08 13:24:00,SystemResetWarning,0832.0,4.99,000.00,030.0,028.5,000.0,038.5,031.4,33.1,-000.3,0007.60,0012.43,0006.95
2023-07-08 13:25:00,SystemResetWarning,0832.0,5.01,000.00,030.0,028.5,000.0,038.5,031.4,32.9,-000.5,0007.61,0012.48,0006.98
2023-07-08 13:26:00,SystemResetWarning,0831.9,5.00,000.00,030.0,028.5,000.0,038.5,031.4,32.8,-000.7,0007.59,0012.50,0006.96
2023-07-08 13:27:00,SystemResetWarning,0831.9,5.00,000.00,030.0,028.4,000.0,038.5,031.4,32.9,0000.0,0007.58,0013.18,0006.97
2023-07-08 13:28:00,SystemResetWarning,0831.9,5.01,000.00,030.0,028.4,000.0,038.5,031.4,33.2,-000.4,0007.59,0014.07,0006.98
2023-07-08 13:29:00,SystemResetWarning,0831.9,4.99,000.00,030.0,028.4,000.0,038.5,031.4,33.4,-000.4,0007.62,0014.14,0006.99
2023-07-08 13:30:00,SystemResetWarning,0831.8,4.99,000.00,030.0,028.4,000.0,038.5,031.4,33.5,-000.9,0007.64,0014.26,0007.00
2023-07-08 13:31:00,SystemResetWarning,0831.8,5.00,000.00,030.0,028.4,000.0,038.5,031.4,33.6,-001.0,0007.68,0014.46,0007.01
2023-07-08 13:32:00,SystemResetWarning,0831.8,5.01,000.00,030.0,028.4,000.0,038.5,031.4,33.5,-001.1,0007.70,0014.47,0007.04
2023-07-08 13:33:00,SystemResetWarning,0832.0,5.00,000.00,030.0,028.4,000.0,038.5,031.4,33.1,-001.3,0007.73,0013.68,0007.08
2023-07-08 13:34:00,SystemResetWarning,0831.8,5.00,000.00,030.0,028.5,000.0,038.5,031.4,32.9,-001.6,0007.78,0013.76,0007.11
2023-07-08 13:35:00,SystemResetWarning,0831.8,4.99,000.00,030.0,028.5,000.0,038.5,031.4,33.2,-001.8,0007.82,0014.28,0007.13
2023-07-08 13:36:00,SystemResetWarning,0832.0,5.00,000.00,030.0,028.5,000.0,038.5,031.4,33.3,-001.8,0007.80,0014.28,0007.13
2023-07-08 13:37:00,SystemResetWarning,0832.1,5.00,000.00,030.0,028.5,000.0,038.5,031.4,33.8,-001.5,0007.84,0014.24,0007.17
2023-07-08 13:38:00,SystemResetWarning,0831.9,5.01,000.00,030.0,028.5,000.0,038.5,031.5,33.7,-001.7,0007.87,0013.72,0007.20
2023-07-08 13:39:00,SystemResetWarning,0832.0,5.01,000.00,030.0,028.5,000.0,038.5,031.5,33.4,-001.4,0007.91,0013.14,0007.23
2023-07-08 13:40:00,SystemResetWarning,0831.7,4.99,000.00,030.0,028.5,000.0,038.5,031.5,33.7,-001.6,0007.93,0013.08,0007.26
2023-07-08 13:41:00,SystemResetWarning,0831.7,4.99,000.00,030.0,028.5,000.0,038.5,031.5,33.7,-001.4,0007.98,0013.33,0007.29
2023-07-08 13:42:00,SystemResetWarning,0831.7,5.00,000.00,030.0,028.5,000.0,038.6,031.5,33.1,-001.5,0008.00,0013.28,0007.31
2023-07-08 13:43:00,SystemResetWarning,0831.7,5.00,000.00,030.0,028.5,000.0,038.6,031.5,33.1,-001.5,0008.05,0013.40,0007.33
2023-07-08 13:44:00,SystemResetWarning,0831.7,5.01,000.00,030.0,028.5,000.0,038.6,031.5,33.3,-001.4,0008.08,0013.45,0007.35
2023-07-08 13:45:00,SystemResetWarning,0831.7,5.01,000.00,030.0,028.5,000.0,038.6,031.5,33.5,-001.6,0008.12,0013.60,0007.38
2023-07-08 13:46:00,SystemResetWarning,0831.7,5.00,000.00,030.1,028.6,000.0,038.6,031.5,33.8,-001.7,0008.17,0013.05,0007.40
2023-07-08 13:47:00,SystemResetWarning,0831.7,4.99,000.00,030.1,028.6,000.0,038.6,031.5,33.5,-001.5,0008.26,0012.84,0007.46
2023-07-08 13:48:00,SystemResetWarning,0831.7,4.99,000.00,030.0,028.6,000.0,038.6,031.5,33.1,-001.5,0008.34,0013.03,0007.51
2023-07-08 13:49:00,SystemResetWarning,0831.6,5.00,000.00,030.1,028.6,000.0,038.6,031.5,33.4,-001.5,0008.40,0013.19,0007.54
2023-07-08 13:50:00,SystemResetWarning,0831.6,5.02,000.00,030.1,028.6,000.0,038.6,031.5,33.5,-001.5,0008.44,0013.05,0007.56
2023-07-08 13:51:00,SystemResetWarning,0831.6,4.99,000.00,030.1,028.6,000.0,038.6,031.5,33.6,-001.2,0008.47,0013.45,0007.58
2023-07-08 13:52:00,SystemResetWarning,0831.6,5.00,000.00,030.1,028.6,000.0,038.6,031.6,33.3,-001.2,0008.50,0013.50,0007.61
2023-07-08 13:53:00,SystemResetWarning,0831.6,5.00,000.00,030.1,028.6,000.0,038.6,031.6,33.4,-001.1,0008.56,0013.62,0007.65
2023-07-08 13:54:00,SystemResetWarning,0831.6,5.01,000.00,030.1,028.4,000.0,038.6,031.6,33.6,-001.2,0008.58,0013.72,0007.66
2023-07-08 13:55:00,SystemResetWarning,0831.5,4.99,000.00,030.1,026.8,000.0,038.4,031.5,33.6,-001.1,0008.60,0013.79,0007.69
2023-07-08 13:56:00,SystemResetWarning,0831.5,5.00,000.00,030.0,025.4,000.0,038.3,031.2,33.6,-000.8,0008.65,0013.80,0007.72
2023-07-08 13:57:00,SystemResetWarning,0831.5,5.01,000.00,029.9,025.2,000.0,038.3,031.0,33.2,-000.8,0008.66,0013.84,0007.75
2023-07-08 13:58:00,SystemResetWarning,0831.6,5.01,000.00,029.7,025.5,000.0,038.3,030.7,33.4,-000.9,0008.69,0013.90,0007.78
2023-07-08 13:59:00,SystemResetWarning,0831.6,4.99,000.00,029.6,025.9,000.0,038.3,030.8,33.6,-000.8,0008.69,0013.81,0007.81
